Date,TemperatureHighF,TemperatureAvgF,TemperatureLowF,DewpointHighF,DewpointAvgF,DewpointLowF,HumidityHigh,HumidityAvg,HumidityLow,PressureMaxIn,PressureMinIn,WindSpeedMaxMPH,WindSpeedAvgMPH,GustSpeedMaxMPH,PrecipitationSumIn
2013-5-1,85,79,73,72,70,68,92,74,60,30.03,29.97,13,4,16,0.00
2013-5-2,82,81,73,69,69,66,82,68,66,30.07,29.99,6,3,8,0.08
2013-5-3,86,77,71,75,69,66,93,78,56,30.05,29.94,14,3,15,0.05
2013-5-4,85,76,70,75,71,68,95,85,64,29.99,29.85,11,2,14,0.29
2013-5-5,81,75,73,73,70,66,95,87,72,29.91,29.80,19,4,26,0.60
2013-5-6,82,75,69,75,68,63,96,81,62,29.95,29.83,11,3,12,0.02
2013-5-7,84,74,68,72,67,65,95,81,64,29.97,29.88,8,2,9,0.00
2013-5-8,83,75,68,71,67,65,94,79,61,29.98,29.90,8,2,9,0.13
2013-5-9,84,77,72,73,70,67,94,80,68,30.07,29.93,7,2,7,0.00
2013-5-10,82,76,72,74,71,68,95,86,65,30.11,30.00,11,3,13,0.19
2013-5-11,78,75,72,71,68,67,90,82,74,30.11,30.01,12,5,15,0.03
2013-5-12,75,74,72,74,71,63,96,91,80,30.11,30.02,10,4,12,3.33
2013-5-13,79,76,74,74,71,69,94,86,74,30.07,29.99,15,6,20,0.53
2013-5-14,84,78,74,74,71,70,90,81,71,30.10,30.02,15,6,18,0.00
2013-5-15,76,75,75,70,70,70,84,84,84,30.10,30.10,8,1,8,0.00
2013-5-16,75,75,75,70,70,70,84,84,84,30.10,30.10,1,1,1,0.00
2013-5-17,75,75,75,70,70,70,84,84,84,30.10,30.10,1,1,1,0.00
2013-5-18,82,76,73,72,70,68,92,82,67,30.10,29.93,8,2,10,0.01
2013-5-19,83,75,71,75,70,67,96,86,64,29.99,29.88,11,3,13,0.84
2013-5-20,82,74,68,74,67,64,95,80,60,29.97,29.86,7,2,9,0.01
2013-5-21,85,75,68,73,67,63,96,79,50,29.98,29.88,12,3,15,0.00
2013-5-22,70,70,70,69,69,68,96,96,92,29.96,29.92,4,2,5,0.00
2013-5-23,70,70,70,69,69,69,96,96,96,29.94,29.94,2,2,2,0.00
2013-5-24,70,70,70,69,69,69,96,96,96,29.94,29.94,2,2,2,0.00
2013-5-25,83,76,70,73,70,69,96,84,67,30.08,29.94,15,6,18,0.09
2013-5-26,84,78,74,72,70,67,83,76,65,30.10,30.00,14,7,16,0.19
2013-5-27,84,78,74,71,69,68,88,75,64,30.09,30.01,15,6,17,0.00
2013-5-28,91,77,74,75,72,67,94,85,73,30.08,30.00,16,6,17,1.36
2013-5-29,84,77,74,80,74,71,96,90,72,30.05,29.98,9,2,10,1.21
2013-5-30,84,78,75,77,73,70,95,84,71,30.03,29.92,12,4,13,0.05
2013-5-31,82,78,76,76,73,71,93,87,77,30.03,29.92,15,4,18,0.28